Flag for Romania Weather past 2 weeks in Târgu Mureş, Romania

Now
82 °F

Passing clouds.


Feels Like: 81 °F
Forecast: 62 / 87 °F
Wind: 7 mph from South

Location: Tirgu Mures Airport

Current Time: Aug 2, 2015 at 1:34:39 PM

Latest Report: Aug 2, 2015 at 1:00 PM


Visibility: N/A

Pressure: 30.15 "Hg

Humidity: 35%

Dew point: 52 °F

Location of Târgu MureşLocation

Historic Weather in Târgu Mureş — Graph

°F

Târgu Mureş temperature yesterday

Maximum temperature yesterday: 81 °F (at 3:30 PM)
Minimum temperature yesterday: 54 °F (at 5:00 AM)
Average temperature yesterday: 69 °F

Past Weeks' High & Low Weather Summary

 TemperatureHumidityPressure
High95 °F (Jul 23, 3:30 PM)94% (Jul 19, 5:30 AM)30.18 "Hg (Jul 19, 5:30 AM)
Low54 °F (Aug 1, 5:00 AM)20% (Jul 23, 6:00 PM)29.71 "Hg (Jul 27, 6:00 PM)
Average74 °F63%29.94 "Hg
* Reported Jul 18 12:00 Noon — Aug 2 12:30 PM, Târgu Mureş, Weather by CustomWeather, © 2015

Note: Actual official high and low records may vary slightly from our data, if they occured in-between our weather recording intervals... More about our weather records

Advertising

Târgu Mureş weather history for previous 24 hours

 ConditionsComfort  
Time TempWeatherWind HumidityBarometerVisibility
12:30 PM
Sun, Aug 2
81 °FPassing clouds.8 mph39%30.15 "HgN/A
12:00 PM81 °FPassing clouds.6 mph39%30.15 "HgN/A
11:30 AM79 °FSunny.6 mph45%30.15 "Hg10 mi
11:00 AM79 °FPassing clouds.6 mph45%30.15 "HgN/A
10:30 AM77 °FPassing clouds.6 mph51%30.15 "HgN/A
10:00 AM75 °FPassing clouds.7 mph54%30.15 "HgN/A
9:30 AM73 °FPassing clouds.7 mph57%30.15 "HgN/A
9:00 AM70 °FPassing clouds.5 mph69%30.18 "HgN/A
8:30 AM66 °FPassing clouds.6 mph78%30.18 "Hg5 mi
8:00 AM63 °FScattered clouds.5 mph88%30.15 "Hg4 mi
7:30 AM61 °FPassing clouds.No wind88%30.15 "HgN/A
7:00 AM59 °FPassing clouds.No wind88%30.15 "HgN/A
6:30 AM55 °FPassing clouds.2 mph94%30.15 "HgN/A
6:00 AM55 °FPassing clouds.5 mph94%30.15 "Hg5 mi
5:30 AM57 °FPassing clouds.8 mph94%30.15 "HgN/A
5:00 AM57 °FClear.9 mph94%30.15 "Hg10 mi
4:00 AM57 °FClear.6 mph94%30.15 "Hg10 mi
3:00 AM57 °FClear.6 mph94%30.15 "Hg10 mi
2:00 AM57 °FClear.7 mph94%30.15 "Hg10 mi
1:00 AM61 °FClear.2 mph83%30.12 "Hg10 mi
12:00 AM63 °FClear.2 mph83%30.12 "Hg10 mi
11:00 PM
Sat, Aug 1
63 °FClear.6 mph83%30.12 "Hg10 mi
10:00 PM64 °FClear.7 mph83%30.09 "Hg10 mi
9:00 PM73 °FSunny.6 mph61%30.09 "Hg10 mi
8:30 PM75 °FScattered clouds.6 mph57%30.09 "HgN/A
8:00 PM77 °FScattered clouds.7 mph51%30.09 "HgN/A
7:30 PM79 °FScattered clouds.7 mph48%30.07 "HgN/A
7:00 PM79 °FScattered clouds.7 mph48%30.07 "HgN/A
6:30 PM81 °FScattered clouds.8 mph42%30.07 "HgN/A
6:00 PM81 °FPartly sunny.7 mph42%30.07 "HgN/A
5:30 PM81 °FPartly sunny.8 mph42%30.07 "HgN/A
5:00 PM79 °FScattered clouds.7 mph45%30.09 "HgN/A
4:30 PM79 °FScattered clouds.6 mph45%30.09 "HgN/A
4:00 PM81 °FScattered clouds.7 mph45%30.09 "HgN/A
3:30 PM81 °FScattered clouds.7 mph42%30.09 "HgN/A
3:00 PM79 °FScattered clouds.5 mph45%30.09 "HgN/A
2:30 PM77 °FPartly sunny.7 mph51%30.09 "HgN/A
2:00 PM77 °FScattered clouds.7 mph51%30.12 "HgN/A
1:30 PM77 °FScattered clouds.7 mph47%30.12 "HgN/A
1:00 PM73 °FPartly sunny.9 mph53%30.12 "HgN/A
Weather by CustomWeather, © 2015

See weather overviewHow to use our weather pages